User: anonymous   Login
Location: Pic du Midi - T1M
(42.9366°N, 0.1426°E)
Time: 13:35:09
(UTC+01:00)
Language:

SEEDS - Orbit

View from above orbital plane
View from above orbital plane
View from above satellite
View from above satellite

Ground track
Ground track

The orbit data is extracted from the following two-line orbital elements,

1 32791U 08021J   21263.22707529  .00000709  00000-0  76064-4 0  9994
2 32791  97.5801 244.2559 0013674  17.4923 342.6764 14.91523916726987
Epoch (UTC): 20 September 2021 05:26:59
Eccentricity: 0.0013674
inclination: 97.5801°
perigee height: 583 km
apogee height: 603 km
right ascension of ascending node: 244.2559°
argument of perigee: 17.4923°
revolutions per day: 14.91523916
mean anomaly at epoch: 342.6764°
orbit number at epoch: 72698

The dashed part of the orbit path shows where the satellite is in the earth's shadow,  

DLR